| time (UTC) | temp C | wind direction | speed KPH | gust KPH | rain 1hr cm | rain 24hr cm | rain mn cm | humidity % | barometer mb |
| 20260508145349 | 16 | 313 | 1.6 | 3.2 | 0.00 | 0.00 | 0.00 | 44 | 1010.5 |
| 20260508144846 | 17 | 286 | 6.4 | 6.4 | 0.00 | 0.00 | 0.00 | 39 | 1010.5 |
| 20260508144344 | 16 | 3 | 1.6 | 1.6 | 0.00 | 0.00 | 0.00 | 41 | 1010.6 |
| 20260508143841 | 16 | 307 | 3.2 | 3.2 | 0.00 | 0.00 | 0.00 | 43 | 1010.4 |
| 20260508143338 | 16 | 314 | 4.8 | 6.4 | 0.00 | 0.00 | 0.00 | 38 | 1010.6 |
| 20260508142835 | 16 | 302 | 4.8 | 6.4 | 0.00 | 0.00 | 0.00 | 42 | 1010.5 |
| 20260508142332 | 16 | 266 | 3.2 | 3.2 | 0.00 | 0.00 | 0.00 | 42 | 1010.5 |
| 20260508141828 | 16 | 337 | 1.6 | 3.2 | 0.00 | 0.00 | 0.00 | 41 | 1010.8 |
| 20260508141325 | 16 | 41 | 3.2 | 3.2 | 0.00 | 0.00 | 0.00 | 45 | 1010.6 |
| 20260508140823 | 16 | 351 | 1.6 | 3.2 | 0.00 | 0.00 | 0.00 | 40 | 1010.6 |
| 20260508140320 | 15 | 85 | 3.2 | 4.8 | 0.00 | 0.00 | 0.00 | 40 | 1010.6 |
| 20260508135815 | 15 | 69 | 0.0 | 1.6 | 0.00 | 0.00 | 0.00 | 39 | 1010.6 |
| 20260508135312 | 15 | 357 | 0.0 | 1.6 | 0.00 | 0.00 | 0.00 | 41 | 1010.9 |
| 20260508134808 | 15 | 350 | 3.2 | 3.2 | 0.00 | 0.00 | 0.00 | 43 | 1010.8 |
| 20260508134305 | 15 | 358 | 0.0 | 1.6 | 0.00 | 0.00 | 0.00 | 44 | 1010.6 |
| 20260508133802 | 15 | 65 | 3.2 | 4.8 | 0.00 | 0.00 | 0.00 | 43 | 1010.6 |
| 20260508133259 | 15 | 76 | 3.2 | 6.4 | 0.00 | 0.00 | 0.00 | 42 | 1010.9 |
| 20260508132757 | 14 | 349 | 3.2 | 4.8 | 0.00 | 0.00 | 0.00 | 43 | 1010.6 |
| 20260508132254 | 13 | 329 | 3.2 | 3.2 | 0.00 | 0.00 | 0.00 | 50 | 1010.8 |
| 20260508131750 | 13 | 31 | 1.6 | 1.6 | 0.00 | 0.00 | 0.00 | 47 | 1010.9 |
| 20260508131246 | 13 | 0 | 1.6 | 1.6 | 0.00 | 0.00 | 0.00 | 47 | 1011.0 |
| 20260508130743 | 13 | 35 | 3.2 | 4.8 | 0.00 | 0.00 | 0.00 | 45 | 1010.9 |
| 20260508130240 | 13 | 297 | 6.4 | 6.4 | 0.00 | 0.00 | 0.00 | 44 | 1010.9 |
| 20260508125736 | 13 | 31 | 1.6 | 3.2 | 0.00 | 0.00 | 0.00 | 45 | 1010.8 |
| 20260508125232 | 13 | 3 | 1.6 | 3.2 | 0.00 | 0.00 | 0.00 | 46 | 1010.8 |
| 20260508124731 | 13 | 40 | 1.6 | 3.2 | 0.00 | 0.00 | 0.00 | 47 | 1010.9 |
| 20260508124227 | 12 | 27 | 0.0 | 1.6 | 0.00 | 0.00 | 0.00 | 51 | 1010.9 |
| 20260508123726 | 12 | 355 | 0.0 | 0.0 | 0.00 | 0.00 | 0.00 | 56 | 1011.2 |
| 20260508123223 | 11 | 35 | 1.6 | 3.2 | 0.00 | 0.00 | 0.00 | 56 | 1010.9 |
| 20260508122719 | 10 | 7 | 0.0 | 1.6 | 0.00 | 0.00 | 0.00 | 61 | 1011.1 |
| 20260508122216 | 10 | 4 | 0.0 | 0.0 | 0.00 | 0.00 | 0.00 | 61 | 1011.0 |
| 20260508121714 | 10 | 57 | 0.0 | 1.6 | 0.00 | 0.00 | 0.00 | 64 | 1011.1 |
| 20260508121212 | 9 | 35 | 0.0 | 1.6 | 0.00 | 0.00 | 0.00 | 70 | 1011.2 |
| 20260508120709 | 8 | 15 | 0.0 | 0.0 | 0.00 | 0.00 | 0.00 | 76 | 1011.2 |
| 20260508120207 | 7 | 6 | 0.0 | 0.0 | 0.00 | 0.00 | 0.00 | 83 | 1011.1 |
| 20260508115705 | 6 | 9 | 0.0 | 0.0 | 0.00 | 0.00 | 0.00 | 84 | 1011.3 |
| 20260508115201 | 5 | 4 | 0.0 | 0.0 | 0.00 | 0.00 | 0.00 | 86 | 1011.3 |
| 20260508114658 | 5 | 3 | 0.0 | 0.0 | 0.00 | 0.00 | 0.00 | 87 | 1011.0 |
| 20260508114155 | 4 | 6 | 0.0 | 0.0 | 0.00 | 0.00 | 0.00 | 89 | 1011.2 |
| 20260508113652 | 3 | 6 | 0.0 | 0.0 | 0.00 | 0.00 | 0.00 | 91 | 1011.0 |
| 20260508113150 | 3 | 353 | 0.0 | 0.0 | 0.00 | 0.00 | 0.00 | 93 | 1010.8 |
| 20260508112646 | 2 | 357 | 0.0 | 0.0 | 0.00 | 0.00 | 0.00 | 98 | 1010.8 |
| 20260508112143 | 2 | 14 | 0.0 | 0.0 | 0.00 | 0.00 | 0.00 | 99 | 1011.1 |
| 20260508111639 | 1 | 6 | 0.0 | 0.0 | 0.00 | 0.00 | 0.00 | 99 | 1011.0 |
| 20260508111137 | 1 | 5 | 0.0 | 0.0 | 0.00 | 0.00 | 0.00 | 98 | 1010.9 |
| 20260508110635 | 1 | 5 | 0.0 | 0.0 | 0.00 | 0.00 | 0.00 | 98 | 1010.8 |
| 20260508110131 | 0 | 5 | 0.0 | 0.0 | 0.00 | 0.00 | 0.00 | 98 | 1010.6 |
| 20260508105626 | 0 | 5 | 0.0 | 0.0 | 0.00 | 0.00 | 0.00 | 98 | 1010.6 |
| 20260508105123 | 0 | 5 | 0.0 | 0.0 | 0.00 | 0.00 | 0.00 | 98 | 1010.6 |
| 20260508104621 | 0 | 5 | 0.0 | 0.0 | 0.00 | 0.00 | 0.00 | 98 | 1010.6 |
| 20260508104117 | 0 | 5 | 0.0 | 0.0 | 0.00 | 0.00 | 0.00 | 98 | 1010.4 |
| 20260508103614 | 0 | 5 | 0.0 | 0.0 | 0.00 | 0.00 | 0.00 | 98 | 1010.5 |
| 20260508103112 | 0 | 4 | 0.0 | 0.0 | 0.00 | 0.00 | 0.00 | 98 | 1010.2 |
| 20260508102609 | 0 | 4 | 0.0 | 0.0 | 0.00 | 0.00 | 0.00 | 98 | 1010.4 |
| 20260508102107 | 0 | 4 | 0.0 | 0.0 | 0.00 | 0.00 | 0.00 | 98 | 1010.1 |
| 20260508101604 | 0 | 4 | 0.0 | 0.0 | 0.00 | 0.00 | 0.00 | 98 | 1010.2 |
| 20260508101101 | 0 | 7 | 0.0 | 0.0 | 0.00 | 0.00 | 0.00 | 98 | 1010.2 |
| 20260508100559 | 0 | 0 | 0.0 | 0.0 | 0.00 | 0.00 | 0.00 | 97 | 1010.0 |
| 20260508100055 | 0 | 1 | 0.0 | 0.0 | 0.00 | 0.00 | 0.00 | 97 | 1010.1 |
| 20260508095553 | 0 | 1 | 0.0 | 0.0 | 0.00 | 0.00 | 0.00 | 97 | 1009.8 |
| 20260508095049 | 0 | 1 | 0.0 | 0.0 | 0.00 | 0.00 | 0.00 | 97 | 1010.0 |
| 20260508094547 | 0 | 1 | 0.0 | 0.0 | 0.00 | 0.00 | 0.00 | 97 | 1010.1 |
| 20260508094044 | 0 | 1 | 0.0 | 0.0 | 0.00 | 0.00 | 0.00 | 97 | 1010.3 |
| 20260508093541 | 0 | 1 | 0.0 | 0.0 | 0.00 | 0.00 | 0.00 | 97 | 1010.2 |
| 20260508093038 | 0 | 0 | 0.0 | 0.0 | 0.00 | 0.00 | 0.00 | 97 | 1010.0 |
| 20260508092535 | 0 | 2 | 0.0 | 0.0 | 0.00 | 0.00 | 0.00 | 97 | 1010.2 |
| 20260508092034 | 0 | 2 | 0.0 | 0.0 | 0.00 | 0.00 | 0.00 | 96 | 1010.3 |
| 20260508091531 | 0 | 2 | 0.0 | 0.0 | 0.00 | 0.00 | 0.00 | 96 | 1010.3 |
| 20260508091028 | 0 | 2 | 0.0 | 0.0 | 0.00 | 0.00 | 0.00 | 96 | 1010.1 |
| 20260508090526 | 0 | 0 | 0.0 | 0.0 | 0.00 | 0.00 | 0.00 | 96 | 1010.1 |
| 20260508090022 | 0 | 3 | 0.0 | 0.0 | 0.00 | 0.00 | 0.00 | 96 | 1010.2 |
| 20260508085519 | 0 | 3 | 0.0 | 0.0 | 0.00 | 0.00 | 0.00 | 96 | 1010.1 |
| 20260508085016 | 1 | 3 | 0.0 | 0.0 | 0.00 | 0.00 | 0.00 | 96 | 1009.8 |
| 20260508084513 | 0 | 3 | 0.0 | 0.0 | 0.00 | 0.00 | 0.00 | 95 | 1009.9 |
| 20260508084010 | 1 | 3 | 0.0 | 0.0 | 0.00 | 0.00 | 0.00 | 95 | 1009.8 |
| 20260508083507 | 1 | 3 | 0.0 | 0.0 | 0.00 | 0.00 | 0.00 | 95 | 1009.7 |
| 20260508083004 | 1 | 3 | 0.0 | 0.0 | 0.00 | 0.00 | 0.00 | 94 | 1009.6 |
| 20260508082459 | 1 | 3 | 0.0 | 0.0 | 0.00 | 0.00 | 0.00 | 94 | 1009.8 |
| 20260508081957 | 1 | 3 | 0.0 | 0.0 | 0.00 | 0.00 | 0.00 | 93 | 1009.5 |
| 20260508081453 | 1 | 3 | 0.0 | 0.0 | 0.00 | 0.00 | 0.00 | 93 | 1009.6 |
| 20260508080944 | 1 | 2 | 0.0 | 0.0 | 0.00 | 0.00 | 0.00 | 92 | 1009.6 |
| 20260508080443 | 2 | 2 | 0.0 | 0.0 | 0.00 | 0.00 | 0.00 | 91 | 1009.5 |
| 20260508075939 | 2 | 3 | 0.0 | 0.0 | 0.00 | 0.00 | 0.00 | 90 | 1009.3 |
| 20260508075436 | 2 | 3 | 0.0 | 0.0 | 0.00 | 0.00 | 0.00 | 90 | 1009.5 |
| 20260508074933 | 2 | 7 | 0.0 | 0.0 | 0.00 | 0.00 | 0.00 | 89 | 1009.4 |
| 20260508074431 | 2 | 0 | 0.0 | 0.0 | 0.00 | 0.00 | 0.00 | 89 | 1009.5 |
| 20260508073928 | 3 | 3 | 0.0 | 0.0 | 0.00 | 0.00 | 0.00 | 86 | 1009.4 |
| 20260508073425 | 3 | 353 | 1.6 | 1.6 | 0.00 | 0.00 | 0.00 | 85 | 1009.9 |
| 20260508072922 | 3 | 2 | 0.0 | 0.0 | 0.00 | 0.00 | 0.00 | 85 | 1009.4 |
| 20260508072418 | 3 | 10 | 0.0 | 0.0 | 0.00 | 0.00 | 0.00 | 83 | 1009.7 |
| 20260508071916 | 4 | 22 | 0.0 | 0.0 | 0.00 | 0.00 | 0.00 | 84 | 1009.4 |
| 20260508071414 | 4 | 359 | 0.0 | 0.0 | 0.00 | 0.00 | 0.00 | 83 | 1009.6 |
| 20260508070911 | 5 | 13 | 0.0 | 0.0 | 0.00 | 0.00 | 0.00 | 80 | 1009.4 |
| 20260508070409 | 5 | 20 | 0.0 | 0.0 | 0.00 | 0.00 | 0.00 | 82 | 1009.5 |
| 20260508065907 | 5 | 0 | 0.0 | 0.0 | 0.00 | 0.00 | 0.00 | 80 | 1009.4 |
| 20260508065404 | 4 | 358 | 0.0 | 0.0 | 0.00 | 0.00 | 0.00 | 84 | 1009.5 |
| 20260508064902 | 4 | 1 | 0.0 | 0.0 | 0.00 | 0.00 | 0.00 | 81 | 1009.4 |
| 20260508064359 | 4 | 4 | 0.0 | 0.0 | 0.00 | 0.00 | 0.00 | 82 | 1009.4 |
| 20260508063857 | 4 | 15 | 0.0 | 0.0 | 0.00 | 0.00 | 0.00 | 83 | 1009.4 |
| 20260508063355 | 5 | 350 | 0.0 | 0.0 | 0.00 | 0.00 | 0.00 | 82 | 1009.5 |
| 20260508062851 | 4 | 19 | 0.0 | 0.0 | 0.00 | 0.00 | 0.00 | 83 | 1009.4 |
| 20260508062349 | 5 | 22 | 0.0 | 1.6 | 0.00 | 0.00 | 0.00 | 81 | 1009.2 |
| 20260508061846 | 5 | 1 | 0.0 | 0.0 | 0.00 | 0.00 | 0.00 | 81 | 1009.4 |
| 20260508061343 | 5 | 10 | 0.0 | 0.0 | 0.00 | 0.00 | 0.00 | 78 | 1009.3 |
| 20260508060840 | 5 | 3 | 0.0 | 1.6 | 0.00 | 0.00 | 0.00 | 82 | 1009.3 |
| 20260508060338 | 5 | 7 | 0.0 | 0.0 | 0.00 | 0.00 | 0.00 | 79 | 1009.1 |
| 20260508055832 | 6 | 358 | 0.0 | 0.0 | 0.00 | 0.00 | 0.00 | 78 | 1009.3 |
| 20260508055330 | 6 | 336 | 1.6 | 1.6 | 0.00 | 0.00 | 0.00 | 75 | 1009.5 |
| 20260508054826 | 6 | 199 | 3.2 | 3.2 | 0.00 | 0.00 | 0.00 | 70 | 1009.3 |
| 20260508054324 | 7 | 3 | 0.0 | 0.0 | 0.00 | 0.00 | 0.00 | 71 | 1009.3 |
| 20260508053821 | 6 | 340 | 1.6 | 3.2 | 0.00 | 0.00 | 0.00 | 65 | 1009.3 |
| 20260508053319 | 6 | 15 | 0.0 | 1.6 | 0.00 | 0.00 | 0.00 | 75 | 1009.6 |
| 20260508052815 | 6 | 358 | 0.0 | 0.0 | 0.00 | 0.00 | 0.00 | 76 | 1009.6 |
| 20260508052313 | 7 | 22 | 0.0 | 0.0 | 0.00 | 0.00 | 0.00 | 74 | 1009.2 |
| 20260508051809 | 7 | 343 | 1.6 | 1.6 | 0.00 | 0.00 | 0.00 | 67 | 1009.4 |
| 20260508051304 | 8 | 357 | 0.0 | 0.0 | 0.00 | 0.00 | 0.00 | 69 | 1009.3 |
| 20260508050801 | 8 | 352 | 3.2 | 3.2 | 0.00 | 0.00 | 0.00 | 66 | 1009.4 |
| 20260508050258 | 8 | 341 | 1.6 | 4.8 | 0.00 | 0.00 | 0.00 | 66 | 1009.4 |
| 20260508045754 | 8 | 6 | 0.0 | 1.6 | 0.00 | 0.00 | 0.00 | 61 | 1009.3 |
| 20260508045252 | 8 | 31 | 0.0 | 1.6 | 0.00 | 0.00 | 0.00 | 67 | 1009.1 |
| 20260508044749 | 7 | 336 | 0.0 | 0.0 | 0.00 | 0.00 | 0.00 | 63 | 1009.3 |
| 20260508044245 | 8 | 17 | 1.6 | 1.6 | 0.00 | 0.00 | 0.00 | 66 | 1009.1 |
| 20260508043741 | 10 | 338 | 0.0 | 1.6 | 0.00 | 0.00 | 0.00 | 59 | 1009.3 |
| 20260508043239 | 10 | 36 | 1.6 | 1.6 | 0.00 | 0.00 | 0.00 | 56 | 1008.9 |
| 20260508042735 | 10 | 12 | 0.0 | 0.0 | 0.00 | 0.00 | 0.00 | 51 | 1009.0 |
| 20260508042233 | 10 | 0 | 3.2 | 3.2 | 0.00 | 0.00 | 0.00 | 55 | 1008.9 |
| 20260508041729 | 10 | 153 | 3.2 | 3.2 | 0.00 | 0.00 | 0.00 | 52 | 1008.6 |
| 20260508041226 | 10 | 6 | 0.0 | 0.0 | 0.00 | 0.00 | 0.00 | 56 | 1008.4 |
| 20260508040723 | 11 | 51 | 1.6 | 1.6 | 0.00 | 0.00 | 0.00 | 50 | 1008.4 |
| 20260508040220 | 11 | 305 | 1.6 | 1.6 | 0.00 | 0.00 | 0.00 | 51 | 1008.5 |
| 20260508035717 | 10 | 103 | 1.6 | 1.6 | 0.00 | 0.00 | 0.00 | 56 | 1008.5 |
| 20260508035215 | 10 | 0 | 0.0 | 0.0 | 0.00 | 0.00 | 0.00 | 59 | 1008.2 |
| 20260508034711 | 10 | 336 | 0.0 | 1.6 | 0.00 | 0.00 | 0.00 | 49 | 1008.3 |
| 20260508034209 | 10 | 43 | 1.6 | 1.6 | 0.00 | 0.00 | 0.00 | 57 | 1008.2 |
| 20260508033705 | 10 | 11 | 0.0 | 1.6 | 0.00 | 0.00 | 0.00 | 58 | 1007.9 |
| 20260508033204 | 11 | 8 | 0.0 | 0.0 | 0.00 | 0.00 | 0.00 | 55 | 1008.1 |
| 20260508032701 | 8 | 69 | 1.6 | 1.6 | 0.00 | 0.00 | 0.00 | 63 | 1008.1 |
| 20260508032158 | 9 | 211 | 3.2 | 3.2 | 0.00 | 0.00 | 0.00 | 70 | 1007.9 |
| 20260508031655 | 8 | 186 | 3.2 | 3.2 | 0.00 | 0.00 | 0.00 | 64 | 1007.8 |
| 20260508031151 | 8 | 14 | 3.2 | 4.8 | 0.00 | 0.00 | 0.00 | 67 | 1008.0 |
| 20260508030647 | 7 | 27 | 1.6 | 1.6 | 0.00 | 0.00 | 0.00 | 62 | 1007.8 |
| 20260508030145 | 7 | 31 | 1.6 | 1.6 | 0.00 | 0.00 | 0.00 | 73 | 1007.8 |
| 20260508025641 | 7 | 42 | 1.6 | 1.6 | 0.00 | 0.00 | 0.00 | 76 | 1007.8 |
| 20260508025138 | 7 | 15 | 0.0 | 0.0 | 0.00 | 0.00 | 0.00 | 78 | 1007.9 |
| 20260508024634 | 7 | 354 | 3.2 | 4.8 | 0.00 | 0.00 | 0.00 | 77 | 1007.6 |
| 20260508024132 | 7 | 8 | 0.0 | 0.0 | 0.00 | 0.00 | 0.00 | 76 | 1007.8 |
| 20260508023627 | 7 | 31 | 0.0 | 1.6 | 0.00 | 0.00 | 0.00 | 75 | 1007.8 |
| 20260508023126 | 7 | 4 | 0.0 | 0.0 | 0.00 | 0.00 | 0.00 | 77 | 1007.6 |
| 20260508022621 | 7 | 12 | 0.0 | 0.0 | 0.00 | 0.00 | 0.00 | 74 | 1007.9 |
| 20260508022119 | 8 | 17 | 1.6 | 1.6 | 0.00 | 0.00 | 0.00 | 73 | 1007.5 |
| 20260508021614 | 8 | 1 | 1.6 | 3.2 | 0.00 | 0.00 | 0.00 | 75 | 1007.5 |
| 20260508021110 | 8 | 6 | 0.0 | 0.0 | 0.00 | 0.00 | 0.00 | 73 | 1007.5 |
| 20260508020608 | 8 | 353 | 1.6 | 1.6 | 0.00 | 0.00 | 0.00 | 74 | 1007.5 |
| 20260508020105 | 8 | 8 | 0.0 | 0.0 | 0.00 | 0.00 | 0.00 | 72 | 1007.4 |
| 20260508015603 | 9 | 338 | 0.0 | 0.0 | 0.00 | 0.00 | 0.00 | 69 | 1007.3 |
| 20260508015059 | 10 | 3 | 0.0 | 0.0 | 0.00 | 0.00 | 0.00 | 70 | 1007.1 |
| 20260508014556 | 10 | 26 | 0.0 | 0.0 | 0.00 | 0.00 | 0.00 | 65 | 1007.1 |
| 20260508014052 | 10 | 334 | 0.0 | 0.0 | 0.00 | 0.00 | 0.00 | 63 | 1007.1 |
| 20260508013548 | 11 | 14 | 0.0 | 0.0 | 0.00 | 0.00 | 0.00 | 54 | 1007.1 |
| 20260508013045 | 11 | 34 | 0.0 | 0.0 | 0.00 | 0.00 | 0.00 | 64 | 1007.1 |
| 20260508012543 | 10 | 312 | 3.2 | 3.2 | 0.00 | 0.00 | 0.00 | 59 | 1007.0 |
| 20260508012040 | 10 | 10 | 0.0 | 0.0 | 0.00 | 0.00 | 0.00 | 63 | 1007.0 |
| 20260508011538 | 11 | 4 | 0.0 | 0.0 | 0.00 | 0.00 | 0.00 | 60 | 1006.7 |
| 20260508011035 | 12 | 354 | 0.0 | 0.0 | 0.00 | 0.00 | 0.00 | 57 | 1006.8 |
| 20260508010532 | 13 | 20 | 0.0 | 0.0 | 0.00 | 0.00 | 0.00 | 50 | 1006.5 |
| 20260508010030 | 13 | 341 | 0.0 | 0.0 | 0.00 | 0.00 | 0.00 | 47 | 1006.6 |
| 20260508005526 | 13 | 2 | 1.6 | 1.6 | 0.00 | 0.00 | 0.00 | 47 | 1006.5 |
| 20260508005023 | 13 | 208 | 1.6 | 3.2 | 0.00 | 0.00 | 0.00 | 47 | 1006.5 |
| 20260508004519 | 13 | 93 | 4.8 | 4.8 | 0.00 | 0.00 | 0.00 | 48 | 1006.3 |
| 20260508004016 | 13 | 358 | 0.0 | 0.0 | 0.00 | 0.00 | 0.00 | 49 | 1006.3 |
| 20260508003512 | 14 | 353 | 1.6 | 1.6 | 0.00 | 0.00 | 0.00 | 45 | 1006.4 |
| 20260508003010 | 14 | 354 | 0.0 | 0.0 | 0.00 | 0.00 | 0.00 | 44 | 1006.5 |
| 20260508002505 | 14 | 112 | 1.6 | 3.2 | 0.00 | 0.00 | 0.00 | 44 | 1006.2 |
| 20260508002003 | 14 | 216 | 3.2 | 3.2 | 0.00 | 0.00 | 0.00 | 46 | 1006.2 |
| 20260508001458 | 14 | 346 | 1.6 | 1.6 | 0.00 | 0.00 | 0.00 | 44 | 1006.2 |
| 20260508000954 | 14 | 306 | 1.6 | 1.6 | 0.00 | 0.00 | 0.00 | 46 | 1006.0 |
| 20260508000445 | 14 | 349 | 0.0 | 1.6 | 0.00 | 0.00 | 0.00 | 46 | 1006.0 |
| 20260507235942 | 14 | 30 | 0.0 | 1.6 | 0.00 | 0.00 | 0.00 | 43 | 1005.7 |
| 20260507235439 | 15 | 343 | 0.0 | 1.6 | 0.00 | 0.00 | 0.00 | 43 | 1005.7 |
| 20260507234937 | 15 | 13 | 4.8 | 4.8 | 0.00 | 0.00 | 0.00 | 43 | 1005.6 |
| 20260507234433 | 15 | 318 | 0.0 | 1.6 | 0.00 | 0.00 | 0.00 | 42 | 1005.7 |
| 20260507233929 | 15 | 349 | 1.6 | 3.2 | 0.00 | 0.00 | 0.00 | 45 | 1005.6 |
| 20260507233427 | 15 | 37 | 1.6 | 1.6 | 0.00 | 0.00 | 0.00 | 40 | 1005.6 |
| 20260507232925 | 15 | 275 | 1.6 | 4.8 | 0.00 | 0.00 | 0.00 | 38 | 1005.6 |
| 20260507232421 | 16 | 339 | 0.0 | 1.6 | 0.00 | 0.00 | 0.00 | 41 | 1005.4 |
| 20260507231918 | 16 | 43 | 0.0 | 1.6 | 0.00 | 0.00 | 0.00 | 39 | 1005.6 |
| 20260507231415 | 16 | 347 | 0.0 | 0.0 | 0.00 | 0.00 | 0.00 | 41 | 1005.6 |
| 20260507230911 | 16 | 218 | 6.4 | 6.4 | 0.00 | 0.00 | 0.00 | 40 | 1005.3 |
| 20260507230409 | 16 | 298 | 1.6 | 1.6 | 0.00 | 0.00 | 0.00 | 41 | 1005.3 |
| 20260507225908 | 16 | 206 | 1.6 | 1.6 | 0.00 | 0.00 | 0.00 | 40 | 1005.1 |
| 20260507225405 | 16 | 313 | 4.8 | 9.7 | 0.00 | 0.00 | 0.00 | 39 | 1005.4 |
| 20260507224901 | 16 | 321 | 3.2 | 3.2 | 0.00 | 0.00 | 0.00 | 40 | 1005.2 |
| 20260507224357 | 17 | 323 | 0.0 | 0.0 | 0.00 | 0.00 | 0.00 | 37 | 1005.3 |
| 20260507223853 | 17 | 2 | 1.6 | 1.6 | 0.00 | 0.00 | 0.00 | 43 | 1004.8 |
| 20260507223350 | 17 | 316 | 6.4 | 6.4 | 0.00 | 0.00 | 0.00 | 38 | 1004.7 |
| 20260507222847 | 17 | 324 | 3.2 | 4.8 | 0.00 | 0.00 | 0.00 | 37 | 1004.7 |
| 20260507222343 | 17 | 337 | 3.2 | 4.8 | 0.00 | 0.00 | 0.00 | 37 | 1004.9 |
| 20260507221840 | 17 | 317 | 3.2 | 3.2 | 0.00 | 0.00 | 0.00 | 42 | 1004.7 |
| 20260507221337 | 17 | 226 | 6.4 | 9.7 | 0.00 | 0.00 | 0.00 | 38 | 1004.5 |
| 20260507220832 | 17 | 92 | 3.2 | 4.8 | 0.00 | 0.00 | 0.00 | 40 | 1004.5 |
| 20260507220331 | 17 | 352 | 1.6 | 4.8 | 0.00 | 0.00 | 0.00 | 39 | 1004.5 |
| 20260507215827 | 17 | 318 | 3.2 | 4.8 | 0.00 | 0.00 | 0.00 | 41 | 1004.5 |
| 20260507215324 | 17 | 292 | 6.4 | 6.4 | 0.00 | 0.00 | 0.00 | 37 | 1004.3 |
| 20260507214821 | 17 | 339 | 3.2 | 4.8 | 0.00 | 0.00 | 0.00 | 46 | 1004.4 |
| 20260507214319 | 17 | 2 | 3.2 | 3.2 | 0.00 | 0.00 | 0.00 | 38 | 1004.4 |
| 20260507213813 | 18 | 343 | 6.4 | 9.7 | 0.00 | 0.00 | 0.00 | 38 | 1004.1 |
| 20260507213311 | 18 | 316 | 3.2 | 3.2 | 0.00 | 0.00 | 0.00 | 36 | 1004.2 |
| 20260507212808 | 18 | 345 | 3.2 | 3.2 | 0.00 | 0.00 | 0.00 | 37 | 1004.0 |
| 20260507212306 | 17 | 25 | 1.6 | 1.6 | 0.00 | 0.00 | 0.00 | 42 | 1004.1 |
| 20260507211800 | 18 | 35 | 9.7 | 12.9 | 0.00 | 0.00 | 0.00 | 36 | 1003.9 |
| 20260507211257 | 18 | 340 | 6.4 | 6.4 | 0.00 | 0.00 | 0.00 | 38 | 1003.9 |
| 20260507210754 | 18 | 328 | 3.2 | 3.2 | 0.00 | 0.00 | 0.00 | 37 | 1003.7 |
| 20260507210251 | 18 | 29 | 1.6 | 1.6 | 0.00 | 0.00 | 0.00 | 38 | 1003.7 |
| 20260507205747 | 17 | 295 | 4.8 | 4.8 | 0.00 | 0.00 | 0.00 | 36 | 1004.1 |
| 20260507205244 | 17 | 352 | 3.2 | 3.2 | 0.00 | 0.00 | 0.00 | 40 | 1004.2 |
| 20260507204740 | 17 | 314 | 6.4 | 9.7 | 0.00 | 0.00 | 0.00 | 40 | 1004.1 |
| 20260507204238 | 18 | 345 | 3.2 | 4.8 | 0.00 | 0.00 | 0.00 | 37 | 1003.9 |
| 20260507203736 | 18 | 345 | 4.8 | 9.7 | 0.00 | 0.00 | 0.00 | 34 | 1003.8 |
| 20260507203233 | 18 | 299 | 1.6 | 3.2 | 0.00 | 0.00 | 0.00 | 37 | 1004.2 |
| 20260507202729 | 20 | 307 | 3.2 | 3.2 | 0.00 | 0.00 | 0.00 | 34 | 1003.9 |
| 20260507202225 | 19 | 324 | 6.4 | 6.4 | 0.00 | 0.00 | 0.00 | 35 | 1004.0 |
| 20260507201720 | 19 | 0 | 1.6 | 1.6 | 0.00 | 0.00 | 0.00 | 37 | 1004.1 |
| 20260507201218 | 18 | 146 | 3.2 | 4.8 | 0.00 | 0.00 | 0.00 | 34 | 1004.2 |
| 20260507200714 | 18 | 304 | 3.2 | 3.2 | 0.00 | 0.00 | 0.00 | 35 | 1004.2 |
| 20260507200210 | 19 | 332 | 0.0 | 1.6 | 0.00 | 0.00 | 0.00 | 34 | 1004.1 |
| 20260507195706 | 19 | 336 | 1.6 | 1.6 | 0.00 | 0.00 | 0.00 | 38 | 1004.1 |
| 20260507195203 | 20 | 2 | 3.2 | 3.2 | 0.00 | 0.00 | 0.00 | 39 | 1004.1 |
| 20260507194700 | 19 | 22 | 6.4 | 11.3 | 0.00 | 0.00 | 0.00 | 37 | 1004.2 |
| 20260507194156 | 19 | 339 | 3.2 | 4.8 | 0.00 | 0.00 | 0.00 | 39 | 1004.2 |
| 20260507193653 | 20 | 277 | 3.2 | 4.8 | 0.00 | 0.00 | 0.00 | 35 | 1004.3 |
| 20260507193150 | 20 | 311 | 4.8 | 4.8 | 0.00 | 0.00 | 0.00 | 36 | 1004.4 |
| 20260507192646 | 19 | 333 | 4.8 | 4.8 | 0.00 | 0.00 | 0.00 | 38 | 1004.2 |
| 20260507192143 | 19 | 229 | 6.4 | 9.7 | 0.00 | 0.00 | 0.00 | 35 | 1004.2 |
| 20260507191639 | 19 | 259 | 4.8 | 6.4 | 0.00 | 0.00 | 0.00 | 34 | 1004.4 |
| 20260507191136 | 18 | 305 | 8.0 | 9.7 | 0.00 | 0.00 | 0.00 | 41 | 1004.4 |
| 20260507190633 | 18 | 326 | 1.6 | 3.2 | 0.00 | 0.00 | 0.00 | 36 | 1004.3 |
| 20260507190132 | 19 | 293 | 3.2 | 4.8 | 0.00 | 0.00 | 0.00 | 36 | 1004.3 |
| 20260507185630 | 18 | 1 | 8.0 | 9.7 | 0.00 | 0.00 | 0.00 | 38 | 1004.3 |
| 20260507185126 | 19 | 318 | 3.2 | 3.2 | 0.00 | 0.00 | 0.00 | 37 | 1004.2 |
| 20260507184624 | 19 | 8 | 1.6 | 1.6 | 0.00 | 0.00 | 0.00 | 45 | 1004.4 |
| 20260507184122 | 19 | 338 | 4.8 | 4.8 | 0.00 | 0.00 | 0.00 | 39 | 1004.5 |
| 20260507183618 | 19 | 353 | 1.6 | 1.6 | 0.00 | 0.00 | 0.00 | 41 | 1004.7 |
| 20260507183115 | 18 | 310 | 3.2 | 4.8 | 0.00 | 0.00 | 0.00 | 44 | 1004.3 |
| 20260507182611 | 19 | 334 | 3.2 | 4.8 | 0.00 | 0.00 | 0.00 | 42 | 1004.5 |
| 20260507182107 | 18 | 328 | 1.6 | 1.6 | 0.00 | 0.00 | 0.00 | 38 | 1004.7 |
| 20260507181604 | 18 | 354 | 1.6 | 1.6 | 0.00 | 0.00 | 0.00 | 45 | 1004.9 |
| 20260507181100 | 18 | 15 | 4.8 | 4.8 | 0.00 | 0.00 | 0.00 | 40 | 1004.7 |
| 20260507180558 | 18 | 343 | 1.6 | 1.6 | 0.00 | 0.00 | 0.00 | 40 | 1004.5 |
| 20260507180054 | 18 | 341 | 3.2 | 3.2 | 0.00 | 0.00 | 0.00 | 44 | 1004.9 |
| 20260507175550 | 18 | 350 | 1.6 | 1.6 | 0.00 | 0.00 | 0.00 | 52 | 1005.0 |
| 20260507175048 | 17 | 317 | 0.0 | 1.6 | 0.00 | 0.00 | 0.00 | 44 | 1005.1 |
| 20260507174544 | 17 | 320 | 1.6 | 1.6 | 0.00 | 0.00 | 0.00 | 42 | 1005.2 |
| 20260507174042 | 17 | 48 | 3.2 | 3.2 | 0.00 | 0.00 | 0.00 | 42 | 1005.7 |
| 20260507173539 | 17 | 315 | 4.8 | 4.8 | 0.00 | 0.00 | 0.00 | 48 | 1005.4 |
| 20260507173036 | 17 | 32 | 6.4 | 6.4 | 0.00 | 0.00 | 0.00 | 43 | 1005.7 |
| 20260507172532 | 17 | 332 | 1.6 | 3.2 | 0.00 | 0.00 | 0.00 | 46 | 1005.6 |
| 20260507172029 | 16 | 89 | 4.8 | 4.8 | 0.00 | 0.00 | 0.00 | 46 | 1005.8 |
| 20260507171524 | 17 | 333 | 1.6 | 1.6 | 0.00 | 0.00 | 0.00 | 43 | 1005.8 |
| 20260507171022 | 17 | 308 | 3.2 | 4.8 | 0.00 | 0.00 | 0.00 | 49 | 1006.0 |
| 20260507170519 | 16 | 337 | 3.2 | 6.4 | 0.00 | 0.00 | 0.00 | 44 | 1006.2 |
| 20260507170016 | 16 | 3 | 6.4 | 9.7 | 0.00 | 0.00 | 0.00 | 45 | 1006.1 |
| 20260507165511 | 16 | 331 | 3.2 | 4.8 | 0.00 | 0.00 | 0.00 | 47 | 1006.4 |
| 20260507165008 | 16 | 6 | 3.2 | 4.8 | 0.00 | 0.00 | 0.00 | 46 | 1006.4 |
| 20260507164504 | 16 | 1 | 3.2 | 3.2 | 0.00 | 0.00 | 0.00 | 46 | 1006.5 |
| 20260507164001 | 16 | 236 | 4.8 | 4.8 | 0.00 | 0.00 | 0.00 | 48 | 1006.5 |
| 20260507163458 | 16 | 331 | 1.6 | 1.6 | 0.00 | 0.00 | 0.00 | 50 | 1006.5 |
| 20260507162955 | 16 | 346 | 3.2 | 4.8 | 0.00 | 0.00 | 0.00 | 49 | 1006.5 |
| 20260507162451 | 16 | 322 | 0.0 | 1.6 | 0.00 | 0.00 | 0.00 | 51 | 1006.7 |
| 20260507161948 | 16 | 243 | 1.6 | 3.2 | 0.00 | 0.00 | 0.00 | 47 | 1006.8 |
| 20260507161444 | 16 | 28 | 3.2 | 4.8 | 0.00 | 0.00 | 0.00 | 47 | 1006.9 |
| 20260507160941 | 16 | 282 | 3.2 | 3.2 | 0.00 | 0.00 | 0.00 | 54 | 1007.0 |
| 20260507160437 | 15 | 326 | 1.6 | 4.8 | 0.00 | 0.00 | 0.00 | 47 | 1006.9 |
| 20260507155933 | 15 | 162 | 3.2 | 4.8 | 0.00 | 0.00 | 0.00 | 47 | 1007.1 |
| 20260507155429 | 16 | 6 | 4.8 | 9.7 | 0.00 | 0.00 | 0.00 | 50 | 1007.2 |
| 20260507154926 | 15 | 251 | 3.2 | 3.2 | 0.00 | 0.00 | 0.00 | 51 | 1007.2 |
| 20260507154423 | 15 | 96 | 3.2 | 4.8 | 0.00 | 0.00 | 0.00 | 47 | 1007.2 |
| 20260507153920 | 15 | 313 | 4.8 | 6.4 | 0.00 | 0.00 | 0.00 | 49 | 1007.4 |
| 20260507153417 | 15 | 264 | 3.2 | 3.2 | 0.00 | 0.00 | 0.00 | 52 | 1007.5 |
| 20260507152913 | 14 | 244 | 3.2 | 3.2 | 0.00 | 0.00 | 0.00 | 50 | 1007.4 |
| 20260507152409 | 14 | 353 | 1.6 | 1.6 | 0.00 | 0.00 | 0.00 | 54 | 1007.2 |
| 20260507151905 | 14 | 32 | 6.4 | 11.3 | 0.00 | 0.00 | 0.00 | 52 | 1007.4 |
| 20260507151402 | 14 | 12 | 3.2 | 4.8 | 0.00 | 0.00 | 0.00 | 50 | 1007.4 |
| 20260507150859 | 14 | 358 | 0.0 | 0.0 | 0.00 | 0.00 | 0.00 | 54 | 1007.5 |
| 20260507150356 | 13 | 5 | 1.6 | 3.2 | 0.00 | 0.00 | 0.00 | 52 | 1007.8 |
| 20260507145852 | 14 | 286 | 6.4 | 6.4 | 0.00 | 0.00 | 0.00 | 55 | 1007.9 |